Home > Weather > Kranj > Past weeks

Flag for Slovenia Weather for the Past 2 Weeks in Kranj, Slovenia

Now
36 °F

Partly cloudy.


Feels Like: 36 °F
Forecast: 18 / 42 °F
Wind: No wind

Location: Ljubljana Airport / Brnik

Current Time: Feb 10, 2016 at 7:57:56 PM

Latest Report: Feb 10, 2016 at 7:00 PM


Visibility: N/A

Pressure: 29.53 "Hg

Humidity: 93%

Dew point: 34 °F

Location of KranjLocation

Historic Weather in Kranj — Graph

°F

Kranj Temperature Yesterday

Maximum temperature yesterday: 50 °F (at 11:30 AM)
Minimum temperature yesterday: 43 °F (at 7:30 AM)
Average temperature yesterday: 47 °F

High & Low Weather Summary for the Past Weeks

 TemperatureHumidityPressure
High57 °F (Feb 1, 1:30 PM)100% (Jan 27, 7:00 AM)30.45 "Hg (Jan 27, 7:00 AM)
Low23 °F (Jan 27, 7:00 AM)34% (Feb 4, 3:00 PM)29.21 "Hg (Feb 10, 4:00 AM)
Average41 °F84%30.11 "Hg
* Reported Jan 26 6:00 PM — Feb 10 6:30 PM, Kranj, Weather by CustomWeather, © 2016

Note: Actual official high and low records may vary slightly from our data, if they occured in-between our weather recording intervals... More about our weather records

Advertising

Kranj Weather History for the Previous 24 Hours

 ConditionsComfort  
Time TempWeatherWind HumidityBarometerVisibility
6:30 PM
Wed, Feb 10
37 °FPartly cloudy.5 mph87%29.50 "HgN/A
6:00 PM36 °FPartly cloudy.2 mph93%29.47 "HgN/A
5:30 PM37 °FPartly cloudy.2 mph93%29.47 "HgN/A
5:00 PM41 °FBroken clouds.1 mph81%29.45 "HgN/A
4:30 PM41 °FBroken clouds.2 mph81%29.42 "HgN/A
4:00 PM43 °FBroken clouds.5 mph76%29.42 "HgN/A
3:30 PM45 °FBroken clouds.7 mph71%29.39 "HgN/A
3:00 PM46 °FBroken clouds.3 mph62%29.36 "HgN/A
2:30 PM45 °FPartly sunny.3 mph61%29.36 "HgN/A
2:00 PM43 °FPartly sunny.3 mph76%29.36 "HgN/A
1:30 PM43 °FPartly sunny.5 mph76%29.36 "HgN/A
1:00 PM41 °FPartly sunny.5 mph81%29.36 "HgN/A
12:30 PM41 °FPartly sunny.5 mph87%29.36 "HgN/A
12:00 PM43 °FPartly sunny.2 mph76%29.36 "HgN/A
11:30 AM39 °FBroken clouds.2 mph87%29.36 "HgN/A
11:00 AM39 °FBroken clouds.2 mph81%29.36 "HgN/A
10:30 AM39 °FLight rain. Broken clouds.5 mph81%29.36 "HgN/A
10:00 AM37 °FLight rain. Mostly cloudy.5 mph87%29.36 "HgN/A
9:30 AM39 °FLight rain. Mostly cloudy.9 mph81%29.33 "HgN/A
9:00 AM39 °FLight rain. Mostly cloudy.7 mph87%29.33 "HgN/A
8:30 AM39 °FLight rain. Mostly cloudy.3 mph75%29.30 "HgN/A
8:00 AM39 °FLight rain. Mostly cloudy.12 mph87%29.27 "HgN/A
7:30 AM39 °FRain. Broken clouds.9 mph93%29.27 "HgN/A
7:00 AM41 °FRain. Partly cloudy.15 mph81%29.24 "HgN/A
6:30 AM39 °FRain. Partly cloudy.12 mph93%29.21 "HgN/A
6:00 AM39 °FLight rain. Partly cloudy.12 mph93%29.21 "HgN/A
5:30 AM41 °FLight rain. Mostly cloudy.16 mph93%29.21 "HgN/A
5:00 AM43 °FRain. Mostly cloudy.12 mph93%29.21 "HgN/A
4:30 AM43 °FRain. Mostly cloudy.3 mph87%29.21 "Hg5 mi
4:00 AM43 °FRain. Mostly cloudy.6 mph87%29.21 "Hg5 mi
3:30 AM43 °FRain. Mostly cloudy.7 mph87%29.24 "Hg5 mi
3:00 AM43 °FRain. Mostly cloudy.5 mph93%29.27 "Hg5 mi
2:30 AM45 °FRain. Mostly cloudy.3 mph87%29.30 "Hg5 mi
1:30 AM45 °FRain. Mostly cloudy.No wind93%29.36 "Hg5 mi
1:00 AM45 °FRain. Mostly cloudy.3 mph93%29.39 "Hg5 mi
12:30 AM45 °FRain. Mostly cloudy.5 mph93%29.42 "HgN/A
12:00 AM45 °FRain. Mostly cloudy.6 mph87%29.45 "HgN/A
11:30 PM
Tue, Feb 9
45 °FRain. Mostly cloudy.5 mph93%29.47 "HgN/A
10:30 PM46 °FLight rain. Mostly cloudy.No wind87%29.53 "HgN/A
10:00 PM48 °FLight rain. Mostly cloudy.3 mph76%29.56 "HgN/A
9:30 PM48 °FLight rain. Mostly cloudy.8 mph82%29.56 "HgN/A
9:00 PM48 °FLight rain. Mostly cloudy.3 mph82%29.56 "HgN/A
8:30 PM48 °FLight rain. Mostly cloudy.3 mph82%29.59 "HgN/A
8:00 PM48 °FLight rain. Mostly cloudy.No wind87%29.59 "HgN/A
7:30 PM46 °FLight rain. Mostly cloudy.1 mph93%29.62 "HgN/A
7:00 PM46 °FRain showers. Mostly cloudy.1 mph93%29.62 "HgN/A
Weather by CustomWeather, © 2016

See weather overviewHow to use our weather pages